[[{"header":{"parameterUnit":"m.s-1","parameterCategory":1,"la1":30.2991,"la2":30.254,"lo1":-89.0895,"lo2":-89.0444,"dy":0.0017,"dx":0.0017,"nx":28,"ny":28,"refTime":"2024-08-17T09:00:00:Z","depth":0,"parameterNumber":2,"parameterNumberName":"U-component_of_WINDS"},"data":[0,0,0,0,0,0,0,0,0,0,0,0,0,0,0,0,0,0,0,0,0,0,0,0,0,0,0,0,0,0,0,0,0,0,0,0,0,0,0,0,0,0,0,0,0,0,0,0,0,0,0,0,0,0,0,0,0,0,1.4671,1.4671,0,1.4704,1.4704,1.4705,1.469,1.4689,1.4688,1.4688,1.4722,1.4724,1.4726,0,0,0,0,0,0,0,0,0,0,0,0,0,1.4594,1.4595,1.4671,1.4671,1.4672,1.4704,1.4704,1.4705,1.469,1.4689,1.4688,1.4687,1.4722,1.4724,1.4726,0,0,0,0,0,0,0,0,0,0,0,0,0,1.4627,1.4596,1.4671,1.4668,1.4668,1.4704,1.4704,1.4705,1.469,1.4689,1.4688,1.4687,1.4721,1.4724,1.4726,1.4766,0,0,1.4734,1.4735,0,0,0,0,0,0,0,0,1.4625,1.463,1.4668,1.4669,1.4669,1.4692,1.469,1.4726,1.4691,1.4682,1.4688,1.4686,1.4713,1.4716,1.4725,1.4768,1.4769,1.4734,1.4736,1.4737,1.4737,0,0,0,0,0,0,0,1.4623,1.4629,1.4684,1.4669,1.4669,1.4665,1.4669,1.4697,1.4704,1.4683,1.4682,1.4686,1.4713,1.4723,1.4726,1.477,1.4734,1.4736,1.4738,1.4739,1.4844,1.4845,0,0,0,0,0,0,1.4621,1.4627,1.4683,1.4685,1.4644,1.4667,1.4671,1.4686,1.4704,1.4705,1.4687,1.4685,1.4719,1.4723,1.4727,1.4773,1.4737,1.4739,1.4741,1.4843,1.4844,1.4846,0,0,0,0,0,0,1.4619,1.4626,1.4682,1.4656,1.4662,1.467,1.4686,1.4687,1.4696,1.4707,1.4708,1.4695,1.4718,1.4724,1.4756,1.4774,1.474,1.4743,1.4841,1.4843,1.4845,1.4866,0,0,0,0,0,0,1.4617,1.4626,1.4641,1.4656,1.4664,1.471,1.4687,1.4688,1.4701,1.4699,1.4715,1.4717,1.4718,1.4752,1.4758,1.4777,1.4744,1.4839,1.4842,1.4844,1.4864,1.4868,1.4872,0,0,0,0,0,1.4614,1.4647,1.4642,1.4649,1.4684,1.4711,1.4716,1.4716,1.4702,1.4718,1.4724,1.4716,1.4771,1.4756,1.4762,1.4782,1.4838,1.4841,1.4844,1.4862,1.4868,1.4872,0,0,0,0,0,0,1.4635,1.4649,1.4644,1.4682,1.4695,1.4709,1.4728,1.4722,1.474,1.4738,1.4737,1.4741,1.4774,1.4782,1.4764,1.482,1.4803,1.4807,1.4814,1.4819,1.4824,1.482,1.4747,0,0,0,0,0,1.4644,1.4665,1.4676,1.4709,1.4716,1.4721,1.4733,1.4732,1.4746,1.4751,1.476,1.4774,1.4794,1.4807,1.4827,1.4865,1.4867,1.4882,1.4886,1.489,1.4893,1.4911,1.4917,1.4855,1.4855,1.4855,0,0,1.4663,1.4673,1.4686,1.4713,1.4723,1.4744,1.4726,1.475,1.4765,1.4755,1.4785,1.4792,1.4808,1.4842,1.4858,1.485,1.491,1.4893,1.4896,1.4897,1.4914,1.492,1.4925,1.4857,1.4856,1.4856,0,0,1.4707,1.4718,1.4744,1.4755,1.477,1.4773,1.4779,1.4793,1.4797,1.4827,1.4819,1.4837,1.4873,1.4883,1.4893,1.4939,1.4931,1.4945,1.4967,1.4985,1.499,1.4994,1.5008,1.5013,1.4949,1.4949,1.4949,0,1.4728,1.476,1.4759,1.4783,1.4794,1.4785,1.4811,1.4821,1.4842,1.485,1.484,1.4882,1.4892,1.4928,1.4938,1.4948,1.4954,1.4943,1.4989,1.4993,1.4997,1.501,1.5016,1.495,1.495,1.495,1.495,0,1.4784,1.4806,1.4826,1.4844,1.4858,1.4883,1.4885,1.4899,1.4896,1.49,1.4929,1.4941,1.4961,1.497,1.4968,1.5004,1.4998,1.4989,1.4971,1.5005,1.5017,1.5022,1.4952,1.4952,1.4951,1.4951,0,0,1.4843,1.4859,1.4866,1.4873,1.4889,1.4905,1.4929,1.4948,1.4958,1.4973,1.4992,1.5021,1.5011,1.5023,1.5022,1.5038,1.507,1.5026,1.5027,1.5032,1.5108,1.5113,1.5119,1.5066,1.5067,1.5067,1.5105,0,1.4886,1.4927,1.4926,1.4964,1.4983,1.4974,1.4994,1.5005,1.5009,1.5025,1.5029,1.5049,1.5036,1.5043,1.5058,1.5063,1.5085,1.506,1.5082,1.5082,1.5076,1.5126,1.5132,1.5167,1.5111,1.5111,1.5112,0,1.4942,1.4957,1.4996,1.5006,1.5014,1.5032,1.5048,1.5064,1.5076,1.5077,1.5088,1.5085,1.5108,1.509,1.5121,1.5104,1.5113,1.5116,1.5118,1.5118,1.5098,1.5126,1.5179,1.5183,1.512,1.5119,1.5119,0,1.4978,1.5007,1.5034,1.5041,1.5054,1.5066,1.5072,1.5083,1.5093,1.5107,1.5113,1.5131,1.5139,1.5152,1.5152,1.514,1.5182,1.5166,1.5183,1.5183,1.5191,1.519,1.5244,1.52,1.52,1.52,1.52,0,1.5025,1.5049,1.5049,1.5066,1.5091,1.509,1.5115,1.512,1.5129,1.5145,1.5139,1.5155,1.5155,1.5171,1.5171,1.5195,1.52,1.52,1.52,1.52,1.5199,1.5204,1.5201,1.5201,1.5201,1.5201,1.5201,0,1.5068,1.507,1.5098,1.5107,1.511,1.5128,1.5136,1.5151,1.5153,1.5174,1.5178,1.5182,1.52,1.5202,1.5223,1.5223,1.5251,1.5249,1.5247,1.5246,1.5262,1.526,1.532,1.5327,1.528,1.528,1.5281,0,1.5098,1.5115,1.5126,1.5136,1.5142,1.5159,1.5168,1.5167,1.5178,1.5191,1.5204,1.5221,1.5234,1.5263,1.5267,1.5283,1.528,1.53,1.5282,1.528,1.5277,1.5275,1.5276,1.5303,1.5303,1.5304,1.5304,0,1.5148,1.5147,1.5162,1.5176,1.5188,1.5199,1.521,1.5219,1.5219,1.5231,1.5248,1.5258,1.5278,1.5294,1.5309,1.5315,1.5309,1.531,1.5314,1.5313,1.531,1.5309,1.5254,1.5308,1.5308,1.5307,1.5307,1.5307,1.5184,1.5198,1.5207,1.5222,1.523,1.5239,1.5253,1.5256,1.527,1.5286,1.5285,1.5303,1.5313,1.5332,1.5338,1.5352,1.5346,1.5353,1.5354,1.5355,1.5356,1.5309,1.5356,1.5355,1.5355,1.5355,1.5355,0,1.5232,1.5237,1.5251,1.5265,1.5277,1.527,1.5281,1.5291,1.5307,1.5316,1.5329,1.5347,1.5362,1.5368,1.5382,1.5392,1.539,1.5396,1.5394,1.5395,1.5362,1.5356,1.5397,1.5397,1.5397,1.5397,1.5397,1.5397,1.5258,1.5281,1.5281,1.5307,1.5311,1.5329,1.5335,1.5343,1.535,1.5371,1.5383,1.5386,1.5393,1.5408,1.5421,1.5422,1.5426,1.5433,1.5433,1.5402,1.5398,1.5394,1.5387,1.5435,1.5435,1.5464,1.5465,1.5465]},{"header":{"parameterUnit":"m.s-1","parameterCategory":1,"la1":30.2991,"la2":30.254,"lo1":-89.0895,"lo2":-89.0444,"dy":0.0017,"dx":0.0017,"nx":28,"ny":28,"refTime":"2024-08-17T09:00:00:Z","depth":0,"parameterNumber":3,"parameterNumberName":"V-component_of_WINDS"},"data":[0,0,0,0,0,0,0,0,0,0,0,0,0,0,0,0,0,0,0,0,0,0,0,0,0,0,0,0,0,0,0,0,0,0,0,0,0,0,0,0,0,0,0,0,0,0,0,0,0,0,0,0,0,0,0,0,0,0,2.1115,2.1116,0,2.1183,2.1184,2.1185,2.1181,2.118,2.1179,2.1178,2.1244,2.1247,2.125,0,0,0,0,0,0,0,0,0,0,0,0,0,2.0975,2.0978,2.1115,2.1116,2.1117,2.1183,2.1184,2.1185,2.1181,2.118,2.1178,2.1177,2.1244,2.1247,2.125,0,0,0,0,0,0,0,0,0,0,0,0,0,2.1039,2.0979,2.1115,2.1123,2.1124,2.1183,2.1184,2.1185,2.1181,2.118,2.1178,2.1177,2.1242,2.1246,2.125,2.1305,0,0,2.1263,2.1264,0,0,0,0,0,0,0,0,2.1035,2.1044,2.1121,2.1122,2.1124,2.1172,2.1159,2.1225,2.1181,2.1159,2.1178,2.1176,2.1221,2.1227,2.1243,2.1308,2.1311,2.1263,2.1266,2.1267,2.1268,0,0,0,0,0,0,0,2.1031,2.1041,2.1142,2.1122,2.1124,2.1121,2.1128,2.1172,2.1198,2.1161,2.1161,2.1169,2.1222,2.1239,2.1244,2.1312,2.1263,2.1267,2.1269,2.1271,2.1422,2.1423,0,0,0,0,0,0,2.1025,2.1037,2.114,2.1144,2.1075,2.1125,2.1133,2.1158,2.1197,2.1202,2.1171,2.1169,2.1233,2.124,2.1247,2.1311,2.1267,2.1271,2.1273,2.142,2.1422,2.1424,0,0,0,0,0,0,2.1022,2.1035,2.1137,2.1091,2.1103,2.1129,2.1157,2.116,2.1177,2.1204,2.1208,2.1184,2.1232,2.1241,2.129,2.1313,2.1273,2.1276,2.1418,2.1421,2.1423,2.1442,0,0,0,0,0,0,2.1018,2.1034,2.1056,2.1091,2.1106,2.1181,2.1158,2.1162,2.1185,2.1183,2.1218,2.1222,2.1232,2.1284,2.1294,2.1318,2.128,2.1416,2.1419,2.1422,2.1439,2.1444,2.1449,0,0,0,0,0,2.1013,2.1059,2.1057,2.107,2.1135,2.1182,2.119,2.1201,2.1187,2.1208,2.1225,2.1221,2.1309,2.1289,2.13,2.1326,2.1415,2.1418,2.1422,2.1437,2.1443,2.1449,0,0,0,0,0,0,2.1025,2.1063,2.1062,2.1121,2.1148,2.1181,2.1209,2.1208,2.124,2.1237,2.1248,2.1256,2.1304,2.132,2.1297,2.1379,2.136,2.1366,2.1367,2.1374,2.1379,2.1373,2.1283,0,0,0,0,0,2.1034,2.1071,2.1102,2.115,2.1164,2.1184,2.1205,2.1211,2.124,2.1251,2.1272,2.1298,2.1332,2.1354,2.1386,2.1441,2.1447,2.1464,2.1469,2.1473,2.1478,2.1505,2.1513,2.1435,2.1435,2.1435,0,0,2.1054,2.108,2.1102,2.1153,2.1175,2.1211,2.1194,2.1233,2.1259,2.1257,2.1304,2.132,2.135,2.1401,2.1425,2.1416,2.15,2.1478,2.1481,2.1483,2.151,2.1517,2.1523,2.1438,2.1437,2.1437,0,0,2.1108,2.1132,2.1174,2.1196,2.1229,2.1242,2.1252,2.1285,2.1295,2.1343,2.1341,2.1371,2.1429,2.145,2.1468,2.1527,2.1523,2.1537,2.1563,2.159,2.1596,2.1601,2.162,2.1627,2.1542,2.1542,2.1542,0,2.1128,2.1183,2.1195,2.1234,2.1255,2.1255,2.1295,2.1316,2.1358,2.1372,2.1361,2.1432,2.1453,2.1508,2.1522,2.1538,2.1547,2.1533,2.1594,2.16,2.1605,2.1623,2.163,2.1543,2.1543,2.1543,2.1543,0,2.1205,2.1243,2.1272,2.1313,2.1338,2.1377,2.1393,2.1416,2.1419,2.1432,2.1478,2.1503,2.1539,2.1553,2.1556,2.1607,2.16,2.1592,2.1572,2.1613,2.163,2.1638,2.1545,2.1545,2.1544,2.1544,0,0,2.127,2.1315,2.1325,2.1342,2.1378,2.1407,2.1445,2.1481,2.1499,2.1528,2.1559,2.1607,2.1598,2.1619,2.1624,2.1648,2.169,2.1636,2.1637,2.1644,2.1745,2.175,2.1758,2.1688,2.1689,2.169,2.1742,0,2.1326,2.1395,2.1405,2.1465,2.1499,2.1498,2.153,2.1555,2.1567,2.1596,2.1609,2.1643,2.163,2.1642,2.1665,2.168,2.171,2.1676,2.1714,2.1716,2.1706,2.1768,2.1774,2.1822,2.1749,2.175,2.1751,0,2.1402,2.1432,2.1495,2.1524,2.1538,2.1568,2.16,2.1629,2.1655,2.1662,2.1684,2.1686,2.1723,2.1702,2.1752,2.1729,2.1744,2.1754,2.1756,2.1759,2.1735,2.1771,2.1838,2.1844,2.1762,2.1761,2.176,0,2.144,2.1496,2.1541,2.1556,2.1591,2.1612,2.1627,2.1652,2.1672,2.1699,2.1712,2.1743,2.176,2.1784,2.1793,2.1777,2.1841,2.1822,2.1846,2.1846,2.186,2.1859,2.1928,2.1872,2.1872,2.1872,2.1872,0,2.1501,2.154,2.1558,2.1586,2.1628,2.1638,2.1679,2.1693,2.1715,2.1743,2.1744,2.177,2.1781,2.1809,2.1816,2.1855,2.1863,2.1868,2.1869,2.1868,2.1867,2.1878,2.1874,2.1874,2.1873,2.1873,2.1872,0,2.1551,2.1566,2.1614,2.1643,2.1651,2.168,2.1704,2.1729,2.1741,2.1776,2.1785,2.1803,2.1835,2.1847,2.1886,2.189,2.1935,2.1934,2.1926,2.1926,2.195,2.1947,2.2028,2.2038,2.1976,2.1977,2.1977,0,2.1589,2.1619,2.165,2.167,2.1686,2.1717,2.1737,2.1747,2.1768,2.1798,2.1819,2.1851,2.1878,2.1928,2.1944,2.1973,2.1972,2.1998,2.1976,2.1972,2.197,2.1968,2.197,2.2002,2.2003,2.2003,2.2004,0,2.1654,2.1659,2.1689,2.172,2.1744,2.177,2.1794,2.1809,2.1822,2.1845,2.1878,2.1898,2.1938,2.1968,2.1998,2.2012,2.2009,2.201,2.2017,2.2015,2.2009,2.2011,2.1936,2.2008,2.2008,2.2008,2.2007,2.2007,2.1698,2.1723,2.1749,2.1781,2.18,2.1822,2.1847,2.1861,2.1889,2.1922,2.1926,2.196,2.1983,2.2022,2.2037,2.2063,2.2056,2.2066,2.2069,2.2071,2.2072,2.2005,2.2069,2.2068,2.2068,2.2068,2.2068,0,2.1762,2.1778,2.1807,2.1841,2.1865,2.1861,2.1887,2.1907,2.1938,2.196,2.1986,2.2022,2.2051,2.2068,2.2097,2.2114,2.2114,2.2121,2.212,2.2122,2.2078,2.2068,2.2121,2.2121,2.2121,2.2121,2.2121,2.2121,2.1798,2.1839,2.1847,2.1897,2.1912,2.1946,2.1961,2.198,2.1998,2.2039,2.2063,2.2074,2.2093,2.2123,2.2149,2.2152,2.2162,2.2171,2.2174,2.2131,2.2126,2.2121,2.2112,2.2173,2.2173,2.2216,2.2216,2.2217]}]]